Location: Bucaritos
(10.0779°N, 67.0369°W)
Time: 16:00:18
(UTC+00:00)

Cosmos 1603 - Pass Details

Date: 27 June 2022
Orbit: 829 x 861 km, 71.0° (Epoch: 08 August)

Event Time Altitude Azimuth Distance (km) Brightness Sun altitude
Rises 23:31:29 0° 185° (S) 3,371 6.6 -9.5°
Reaches altitude 10° 23:33:58 10° 180° (S) 2,441 5.8 -10.1°
Maximum altitude 23:39:23 52° 104° (ESE) 1,039 3.8 -11.3°
Drops below altitude 10° 23:44:51 10° 29° (NNE) 2,459 6.1 -12.5°
Sets 23:47:21 0° 25° (NNE) 3,399 6.9 -13.0°
